Time,TemperatureF,DewpointF,PressureIn,WindDirection,WindDirectionDegrees,WindSpeedMPH,WindSpeedGustMPH,Humidity,HourlyPrecipIn,Conditions,Clouds,dailyrainin,SolarRadiationWatts/m^2,SoftwareType,DateUTC
2013-08-22 00:02:00,74.9,68.7,30.01,SW,217,0.0,0.0,81,0.00,,,0.00,0,Wunderground v.1.15,2013-08-22 04:02:00,
2013-08-22 00:07:00,74.9,68.7,30.01,SW,217,0.0,0.0,81,0.00,,,0.00,0,Wunderground v.1.15,2013-08-22 04:07:00,
2013-08-22 00:12:00,74.9,68.7,30.01,SW,217,0.0,0.0,81,0.00,,,0.00,0,Wunderground v.1.15,2013-08-22 04:12:00,
2013-08-22 00:22:00,74.4,68.2,30.01,SW,217,0.0,0.0,81,0.00,,,0.00,0,Wunderground v.1.15,2013-08-22 04:22:00,
2013-08-22 00:27:00,74.0,68.2,30.00,SW,217,0.0,0.0,82,0.00,,,0.00,0,Wunderground v.1.15,2013-08-22 04:27:00,
2013-08-22 00:37:00,73.3,68.2,30.00,SW,217,0.0,4.0,84,0.00,,,0.00,0,Wunderground v.1.15,2013-08-22 04:37:00,
2013-08-22 00:42:00,73.2,68.1,30.01,SSW,202,0.0,4.0,84,0.00,,,0.00,0,Wunderground v.1.15,2013-08-22 04:42:00,
2013-08-22 00:47:00,73.1,68.0,30.00,SSW,194,0.0,4.0,84,0.00,,,0.00,0,Wunderground v.1.15,2013-08-22 04:47:00,
2013-08-22 00:52:00,73.1,68.3,30.00,SW,215,0.0,4.0,85,0.00,,,0.00,0,Wunderground v.1.15,2013-08-22 04:52:00,
2013-08-22 00:57:00,73.0,67.9,30.00,SSW,213,1.0,1.0,84,0.00,,,0.00,0,Wunderground v.1.15,2013-08-22 04:57:00,
2013-08-22 01:07:00,73.1,68.0,30.01,SSW,213,1.0,1.0,84,0.00,,,0.00,0,Wunderground v.1.15,2013-08-22 05:07:00,
2013-08-22 01:17:00,73.0,67.9,30.02,SW,219,0.0,0.0,84,0.00,,,0.00,0,Wunderground v.1.15,2013-08-22 05:17:00,
2013-08-22 01:27:00,72.7,67.6,30.02,SSW,192,0.0,2.0,84,0.00,,,0.00,0,Wunderground v.1.15,2013-08-22 05:27:00,
2013-08-22 01:32:00,72.6,67.8,30.02,SSW,196,1.0,2.0,85,0.00,,,0.00,0,Wunderground v.1.15,2013-08-22 05:32:00,
2013-08-22 01:37:00,72.5,67.7,30.01,SW,216,2.0,7.0,85,0.00,,,0.00,0,Wunderground v.1.15,2013-08-22 05:37:00,
2013-08-22 01:42:00,72.5,67.7,30.01,South,191,2.0,7.0,85,0.00,,,0.00,0,Wunderground v.1.15,2013-08-22 05:42:00,
2013-08-22 01:52:00,72.4,67.6,30.00,South,183,1.0,1.0,85,0.00,,,0.00,0,Wunderground v.1.15,2013-08-22 05:52:00,
2013-08-22 01:57:00,72.3,67.5,30.00,SW,217,1.0,1.0,85,0.00,,,0.00,0,Wunderground v.1.15,2013-08-22 05:57:00,
2013-08-22 02:07:00,72.1,67.3,30.00,SSW,200,0.0,0.0,85,0.00,,,0.00,0,Wunderground v.1.15,2013-08-22 06:07:00,
2013-08-22 02:12:00,72.0,67.6,30.00,SSW,200,0.0,0.0,86,0.00,,,0.00,0,Wunderground v.1.15,2013-08-22 06:12:00,
2013-08-22 02:22:00,71.9,67.8,30.00,SW,231,1.0,1.0,87,0.00,,,0.00,0,Wunderground v.1.15,2013-08-22 06:22:00,
2013-08-22 02:27:00,71.9,67.8,30.00,SW,218,0.0,0.0,87,0.00,,,0.00,0,Wunderground v.1.15,2013-08-22 06:27:00,
2013-08-22 02:37:00,72.1,68.0,30.00,WSW,246,0.0,6.0,87,0.00,,,0.00,0,Wunderground v.1.15,2013-08-22 06:37:00,
2013-08-22 02:47:00,72.4,68.0,30.01,West,266,2.0,7.0,86,0.00,,,0.00,0,Wunderground v.1.15,2013-08-22 06:47:00,
2013-08-22 02:57:00,73.3,68.2,30.00,West,265,3.0,3.0,84,0.00,,,0.00,0,Wunderground v.1.15,2013-08-22 06:57:00,
2013-08-22 03:02:00,73.4,67.9,30.00,SW,223,3.0,3.0,83,0.00,,,0.00,0,Wunderground v.1.15,2013-08-22 07:02:00,
2013-08-22 03:07:00,73.3,67.8,30.00,WSW,244,2.0,2.0,83,0.00,,,0.00,0,Wunderground v.1.15,2013-08-22 07:07:00,
2013-08-22 03:17:00,73.2,68.1,30.00,SW,223,2.0,2.0,84,0.00,,,0.00,0,Wunderground v.1.15,2013-08-22 07:17:00,
2013-08-22 03:27:00,73.0,67.9,29.99,SW,223,0.0,0.0,84,0.00,,,0.00,0,Wunderground v.1.15,2013-08-22 07:27:00,
2013-08-22 03:37:00,72.6,67.8,29.99,SW,223,0.0,4.0,85,0.00,,,0.00,0,Wunderground v.1.15,2013-08-22 07:37:00,
2013-08-22 03:47:00,72.3,67.9,29.98,WSW,246,0.0,4.0,86,0.00,,,0.00,0,Wunderground v.1.15,2013-08-22 07:47:00,
2013-08-22 03:52:00,72.2,67.8,29.97,WSW,246,0.0,4.0,86,0.00,,,0.00,0,Wunderground v.1.15,2013-08-22 07:52:00,
2013-08-22 03:57:00,72.1,67.7,29.97,WSW,246,0.0,0.0,86,0.00,,,0.00,0,Wunderground v.1.15,2013-08-22 07:57:00,
2013-08-22 04:07:00,72.0,67.9,29.97,WSW,246,0.0,0.0,87,0.00,,,0.00,0,Wunderground v.1.15,2013-08-22 08:07:00,
2013-08-22 04:17:00,71.7,68.0,29.96,South,181,0.0,0.0,88,0.00,,,0.00,0,Wunderground v.1.15,2013-08-22 08:17:00,
2013-08-22 04:27:00,71.5,67.8,29.95,SSE,165,0.0,0.0,88,0.00,,,0.00,0,Wunderground v.1.15,2013-08-22 08:27:00,
2013-08-22 04:32:00,71.4,68.0,29.95,SSE,165,0.0,7.0,89,0.00,,,0.00,0,Wunderground v.1.15,2013-08-22 08:32:00,
2013-08-22 04:42:00,71.5,68.1,29.94,South,173,2.0,7.0,89,0.00,,,0.00,0,Wunderground v.1.15,2013-08-22 08:42:00,
2013-08-22 04:47:00,71.5,68.1,29.94,SSW,205,3.0,3.0,89,0.00,,,0.00,0,Wunderground v.1.15,2013-08-22 08:47:00,
2013-08-22 04:52:00,71.6,68.2,29.94,WSW,240,2.0,4.0,89,0.00,,,0.00,0,Wunderground v.1.15,2013-08-22 08:52:00,
2013-08-22 04:57:00,71.6,67.9,29.95,WSW,238,3.0,4.0,88,0.00,,,0.00,0,Wunderground v.1.15,2013-08-22 08:57:00,
2013-08-22 05:07:00,71.6,67.9,29.96,WNW,294,4.0,4.0,88,0.00,,,0.00,0,Wunderground v.1.15,2013-08-22 09:07:00,
2013-08-22 05:12:00,71.6,68.2,29.96,WNW,288,3.0,4.0,89,0.00,,,0.00,0,Wunderground v.1.15,2013-08-22 09:12:00,
2013-08-22 05:17:00,71.5,68.1,29.96,WNW,288,1.0,1.0,89,0.00,,,0.00,0,Wunderground v.1.15,2013-08-22 09:17:00,
2013-08-22 05:22:00,71.5,68.1,29.96,WNW,288,0.0,1.0,89,0.00,,,0.00,0,Wunderground v.1.15,2013-08-22 09:22:00,
2013-08-22 05:32:00,71.2,67.8,29.97,NNE,19,0.0,2.0,89,0.00,,,0.00,0,Wunderground v.1.15,2013-08-22 09:32:00,
2013-08-22 05:42:00,71.0,67.9,29.97,NNW,346,0.0,5.0,90,0.00,,,0.00,0,Wunderground v.1.15,2013-08-22 09:42:00,
2013-08-22 05:47:00,70.9,67.8,29.97,NNW,346,0.0,5.0,90,0.00,,,0.00,0,Wunderground v.1.15,2013-08-22 09:47:00,
2013-08-22 05:52:00,70.8,67.7,29.98,NNW,341,0.0,5.0,90,0.00,,,0.00,0,Wunderground v.1.15,2013-08-22 09:52:00,
2013-08-22 05:57:00,70.8,67.7,29.98,NNW,327,0.0,0.0,90,0.00,,,0.00,0,Wunderground v.1.15,2013-08-22 09:57:00,
2013-08-22 06:07:00,70.7,67.6,29.98,NW,309,0.0,0.0,90,0.00,,,0.00,0,Wunderground v.1.15,2013-08-22 10:07:00,
2013-08-22 06:12:00,70.6,67.5,29.98,NW,308,0.0,0.0,90,0.00,,,0.00,0,Wunderground v.1.15,2013-08-22 10:12:00,
2013-08-22 06:17:00,70.6,67.5,29.98,NW,308,0.0,0.0,90,0.00,,,0.00,0,Wunderground v.1.15,2013-08-22 10:17:00,
2013-08-22 06:27:00,70.4,67.3,29.98,NW,308,0.0,0.0,90,0.00,,,0.00,0,Wunderground v.1.15,2013-08-22 10:27:00,
2013-08-22 06:37:00,70.1,67.0,29.99,NW,308,0.0,7.0,90,0.00,,,0.00,0,Wunderground v.1.15,2013-08-22 10:37:00,
2013-08-22 06:42:00,70.1,67.0,29.99,NW,308,0.0,7.0,90,0.00,,,0.00,0,Wunderground v.1.15,2013-08-22 10:42:00,
2013-08-22 06:47:00,69.9,66.8,30.00,NW,308,0.0,7.0,90,0.00,,,0.00,0,Wunderground v.1.15,2013-08-22 10:47:00,
2013-08-22 08:27:00,70.1,67.0,30.03,NW,308,1.0,1.0,90,0.00,,,0.00,132,Wunderground v.1.15,2013-08-22 12:27:00,
2013-08-22 08:37:00,70.4,67.0,30.03,NW,317,0.0,0.0,89,0.00,,,0.00,179,Wunderground v.1.15,2013-08-22 12:37:00,
2013-08-22 08:47:00,71.0,67.3,30.03,NW,321,0.0,0.0,88,0.00,,,0.00,181,Wunderground v.1.15,2013-08-22 12:47:00,
2013-08-22 08:57:00,71.3,67.2,30.03,NW,313,1.0,1.0,87,0.00,,,0.00,285,Wunderground v.1.15,2013-08-22 12:57:00,
2013-08-22 09:07:00,72.0,67.9,30.03,NNW,345,2.0,2.0,87,0.00,,,0.00,304,Wunderground v.1.15,2013-08-22 13:07:00,
2013-08-22 09:12:00,72.1,67.7,30.03,WNW,302,3.0,3.0,86,0.00,,,0.00,330,Wunderground v.1.15,2013-08-22 13:12:00,
2013-08-22 09:17:00,72.3,67.2,30.03,NW,315,4.0,4.0,84,0.00,,,0.00,330,Wunderground v.1.15,2013-08-22 13:17:00,
2013-08-22 09:22:00,72.5,67.4,30.03,NW,309,4.0,4.0,84,0.00,,,0.00,359,Wunderground v.1.15,2013-08-22 13:22:00,
2013-08-22 09:32:00,72.7,67.2,30.03,NW,317,4.0,7.0,83,0.00,,,0.00,399,Wunderground v.1.15,2013-08-22 13:32:00,
2013-08-22 09:37:00,73.0,67.9,30.03,WNW,288,2.0,2.0,84,0.00,,,0.00,396,Wunderground v.1.15,2013-08-22 13:37:00,
2013-08-22 09:47:00,73.4,67.9,30.03,WNW,284,2.0,5.0,83,0.00,,,0.00,424,Wunderground v.1.15,2013-08-22 13:47:00,
2013-08-22 09:52:00,73.8,68.0,30.02,WNW,296,2.0,5.0,82,0.00,,,0.00,432,Wunderground v.1.15,2013-08-22 13:52:00,
2013-08-22 09:57:00,74.0,67.8,30.02,WNW,290,2.0,4.0,81,0.00,,,0.00,462,Wunderground v.1.15,2013-08-22 13:57:00,
2013-08-22 10:07:00,74.4,68.2,30.03,NW,322,3.0,3.0,81,0.00,,,0.00,497,Wunderground v.1.15,2013-08-22 14:07:00,
2013-08-22 10:12:00,74.7,68.1,30.02,WNW,289,3.0,3.0,80,0.00,,,0.00,506,Wunderground v.1.15,2013-08-22 14:12:00,
2013-08-22 10:17:00,75.1,68.9,30.02,NNW,328,1.0,1.0,81,0.00,,,0.00,526,Wunderground v.1.15,2013-08-22 14:17:00,
2013-08-22 10:27:00,75.6,68.6,30.03,NNW,347,3.0,3.0,79,0.00,,,0.00,552,Wunderground v.1.15,2013-08-22 14:27:00,
2013-08-22 10:32:00,75.7,68.4,30.02,West,274,4.0,6.0,78,0.00,,,0.00,557,Wunderground v.1.15,2013-08-22 14:32:00,
2013-08-22 10:37:00,75.8,69.2,30.02,NNW,335,4.0,4.0,80,0.00,,,0.00,573,Wunderground v.1.15,2013-08-22 14:37:00,
2013-08-22 10:42:00,76.1,68.7,30.02,WNW,285,3.0,8.0,78,0.00,,,0.00,564,Wunderground v.1.15,2013-08-22 14:42:00,
2013-08-22 10:52:00,76.5,69.1,30.02,WSW,244,4.0,7.0,78,0.00,,,0.00,615,Wunderground v.1.15,2013-08-22 14:52:00,
2013-08-22 10:57:00,76.8,69.0,30.02,WSW,248,4.0,7.0,77,0.00,,,0.00,599,Wunderground v.1.15,2013-08-22 14:57:00,
2013-08-22 11:07:00,76.9,68.0,30.03,West,259,6.0,6.0,74,0.00,,,0.00,643,Wunderground v.1.15,2013-08-22 15:07:00,
2013-08-22 11:17:00,77.2,68.3,30.03,WNW,286,4.0,4.0,74,0.00,,,0.00,657,Wunderground v.1.15,2013-08-22 15:17:00,
2013-08-22 11:22:00,77.3,68.4,30.03,WSW,249,5.0,5.0,74,0.00,,,0.00,661,Wunderground v.1.15,2013-08-22 15:22:00,
2013-08-22 11:27:00,77.6,69.8,30.03,NW,305,4.0,4.0,77,0.00,,,0.00,715,Wunderground v.1.15,2013-08-22 15:27:00,
2013-08-22 11:32:00,78.2,69.6,30.03,West,265,2.0,6.0,75,0.00,,,0.00,759,Wunderground v.1.15,2013-08-22 15:32:00,
2013-08-22 11:37:00,78.4,69.4,30.03,NW,307,2.0,2.0,74,0.00,,,0.00,673,Wunderground v.1.15,2013-08-22 15:37:00,
2013-08-22 11:47:00,77.9,68.5,30.03,WNW,295,4.0,4.0,73,0.00,,,0.00,680,Wunderground v.1.15,2013-08-22 15:47:00,
2013-08-22 11:52:00,77.9,68.5,30.03,NW,317,5.0,5.0,73,0.00,,,0.00,708,Wunderground v.1.15,2013-08-22 15:52:00,
2013-08-22 11:57:00,78.3,69.3,30.02,WNW,296,4.0,5.0,74,0.00,,,0.00,714,Wunderground v.1.15,2013-08-22 15:57:00,
2013-08-22 12:07:00,78.4,68.6,30.02,West,261,5.0,5.0,72,0.00,,,0.00,552,Wunderground v.1.15,2013-08-22 16:07:00,
2013-08-22 12:12:00,78.5,69.5,30.02,West,273,5.0,5.0,74,0.00,,,0.00,800,Wunderground v.1.15,2013-08-22 16:12:00,
2013-08-22 12:17:00,78.8,69.4,30.02,West,281,4.0,7.0,73,0.00,,,0.00,666,Wunderground v.1.15,2013-08-22 16:17:00,
2013-08-22 12:22:00,78.9,69.9,30.02,NW,308,4.0,7.0,74,0.00,,,0.00,473,Wunderground v.1.15,2013-08-22 16:22:00,
2013-08-22 12:27:00,78.9,69.9,30.02,NW,306,5.0,5.0,74,0.00,,,0.00,615,Wunderground v.1.15,2013-08-22 16:27:00,
2013-08-22 12:32:00,79.0,68.8,30.02,West,266,4.0,12.0,71,0.00,,,0.00,587,Wunderground v.1.15,2013-08-22 16:32:00,
2013-08-22 12:37:00,78.8,69.0,30.01,West,269,3.0,3.0,72,0.00,,,0.00,388,Wunderground v.1.15,2013-08-22 16:37:00,
2013-08-22 12:42:00,79.0,70.0,30.01,West,267,3.0,4.0,74,0.00,,,0.00,705,Wunderground v.1.15,2013-08-22 16:42:00,
2013-08-22 12:47:00,79.3,69.1,30.01,WSW,253,4.0,4.0,71,0.00,,,0.00,603,Wunderground v.1.15,2013-08-22 16:47:00,
2013-08-22 12:57:00,79.5,70.1,30.01,West,279,3.0,3.0,73,0.00,,,0.00,603,Wunderground v.1.15,2013-08-22 16:57:00,
2013-08-22 13:07:00,79.4,69.2,30.01,West,268,3.0,6.0,71,0.00,,,0.00,490,Wunderground v.1.15,2013-08-22 17:07:00,
2013-08-22 13:12:00,79.2,68.1,30.01,NW,306,4.0,6.0,69,0.00,,,0.00,427,Wunderground v.1.15,2013-08-22 17:12:00,
2013-08-22 13:22:00,79.1,68.9,30.01,WNW,294,3.0,4.0,71,0.00,,,0.00,422,Wunderground v.1.15,2013-08-22 17:22:00,
2013-08-22 13:32:00,79.1,69.7,30.00,WNW,291,2.0,12.0,73,0.00,,,0.00,285,Wunderground v.1.15,2013-08-22 17:32:00,
2013-08-22 13:37:00,79.0,68.8,30.00,WSW,258,3.0,3.0,71,0.00,,,0.00,392,Wunderground v.1.15,2013-08-22 17:37:00,
2013-08-22 13:47:00,79.0,69.6,30.00,WNW,295,2.0,12.0,73,0.00,,,0.00,408,Wunderground v.1.15,2013-08-22 17:47:00,
2013-08-22 13:52:00,79.0,70.4,30.01,NW,305,2.0,12.0,75,0.00,,,0.00,497,Wunderground v.1.15,2013-08-22 17:52:00,
2013-08-22 13:57:00,79.1,70.1,30.01,NW,313,1.0,2.0,74,0.00,,,0.00,527,Wunderground v.1.15,2013-08-22 17:57:00,
2013-08-22 14:07:00,79.3,70.7,30.01,West,267,3.0,4.0,75,0.00,,,0.00,497,Wunderground v.1.15,2013-08-22 18:07:00,
2013-08-22 14:12:00,79.4,70.4,30.01,WSW,249,4.0,4.0,74,0.00,,,0.00,517,Wunderground v.1.15,2013-08-22 18:12:00,
2013-08-22 14:17:00,79.6,70.6,30.01,WNW,298,3.0,3.0,74,0.00,,,0.00,617,Wunderground v.1.15,2013-08-22 18:17:00,
2013-08-22 14:22:00,79.9,70.9,30.01,WNW,294,2.0,3.0,74,0.00,,,0.00,504,Wunderground v.1.15,2013-08-22 18:22:00,
2013-08-22 14:32:00,79.8,70.0,30.01,West,266,3.0,3.0,72,0.00,,,0.00,443,Wunderground v.1.15,2013-08-22 18:32:00,
2013-08-22 14:42:00,79.7,70.7,30.01,West,261,3.0,7.0,74,0.00,,,0.00,413,Wunderground v.1.15,2013-08-22 18:42:00,
2013-08-22 14:47:00,79.5,70.1,30.01,WNW,285,4.0,5.0,73,0.00,,,0.00,422,Wunderground v.1.15,2013-08-22 18:47:00,
2013-08-22 14:57:00,79.7,70.7,30.01,West,277,4.0,4.0,74,0.00,,,0.00,443,Wunderground v.1.15,2013-08-22 18:57:00,
2013-08-22 15:07:00,79.2,69.4,30.01,WNW,296,5.0,5.0,72,0.00,,,0.00,359,Wunderground v.1.15,2013-08-22 19:07:00,
2013-08-22 15:12:00,78.9,69.5,30.01,WNW,295,5.0,5.0,73,0.00,,,0.00,320,Wunderground v.1.15,2013-08-22 19:12:00,
2013-08-22 15:17:00,78.8,69.4,30.00,NW,319,4.0,5.0,73,0.00,,,0.00,297,Wunderground v.1.15,2013-08-22 19:17:00,
2013-08-22 15:22:00,78.6,69.6,30.00,NW,321,3.0,5.0,74,0.00,,,0.00,309,Wunderground v.1.15,2013-08-22 19:22:00,
2013-08-22 15:27:00,78.7,70.1,30.00,West,280,3.0,3.0,75,0.00,,,0.00,366,Wunderground v.1.15,2013-08-22 19:27:00,
2013-08-22 15:32:00,78.8,70.6,30.00,NW,319,3.0,5.0,76,0.00,,,0.00,360,Wunderground v.1.15,2013-08-22 19:32:00,
2013-08-22 15:42:00,79.2,71.0,30.00,West,271,2.0,5.0,76,0.00,,,0.00,422,Wunderground v.1.15,2013-08-22 19:42:00,
2013-08-22 15:47:00,79.3,70.7,30.00,West,260,3.0,10.0,75,0.00,,,0.00,473,Wunderground v.1.15,2013-08-22 19:47:00,
2013-08-22 15:52:00,79.4,70.8,30.00,West,266,4.0,10.0,75,0.00,,,0.00,445,Wunderground v.1.15,2013-08-22 19:52:00,
2013-08-22 15:57:00,79.4,70.8,29.99,West,271,4.0,7.0,75,0.00,,,0.00,373,Wunderground v.1.15,2013-08-22 19:57:00,
2013-08-22 16:07:00,79.2,70.6,29.99,WNW,298,4.0,5.0,75,0.00,,,0.00,346,Wunderground v.1.15,2013-08-22 20:07:00,
2013-08-22 16:12:00,79.1,70.9,29.99,WNW,289,4.0,5.0,76,0.00,,,0.00,316,Wunderground v.1.15,2013-08-22 20:12:00,
2013-08-22 16:17:00,79.0,70.4,29.99,NW,313,3.0,5.0,75,0.00,,,0.00,322,Wunderground v.1.15,2013-08-22 20:17:00,
2013-08-22 16:27:00,78.7,69.7,29.99,West,279,4.0,5.0,74,0.00,,,0.00,230,Wunderground v.1.15,2013-08-22 20:27:00,
2013-08-22 16:37:00,78.2,70.0,29.99,NW,307,3.0,11.0,76,0.00,,,0.00,141,Wunderground v.1.15,2013-08-22 20:37:00,
2013-08-22 16:47:00,77.7,69.9,29.99,NNW,328,3.0,3.0,77,0.00,,,0.00,100,Wunderground v.1.15,2013-08-22 20:47:00,
2013-08-22 16:57:00,77.3,68.8,30.00,NNW,329,2.0,3.0,75,0.00,,,0.00,70,Wunderground v.1.15,2013-08-22 20:57:00,
2013-08-22 17:07:00,76.9,68.8,30.00,WNW,297,1.0,1.0,76,0.00,,,0.00,70,Wunderground v.1.15,2013-08-22 21:07:00,
2013-08-22 17:12:00,76.8,69.0,29.99,West,280,0.0,1.0,77,0.00,,,0.00,70,Wunderground v.1.15,2013-08-22 21:12:00,
2013-08-22 17:17:00,76.7,68.9,29.99,NNW,328,0.0,0.0,77,0.00,,,0.00,62,Wunderground v.1.15,2013-08-22 21:17:00,
2013-08-22 17:22:00,76.5,69.1,30.00,WNW,296,0.0,0.0,78,0.00,,,0.00,60,Wunderground v.1.15,2013-08-22 21:22:00,
2013-08-22 17:27:00,76.3,68.9,30.00,WNW,290,0.0,0.0,78,0.00,,,0.00,62,Wunderground v.1.15,2013-08-22 21:27:00,
2013-08-22 17:37:00,76.1,69.1,30.00,WNW,290,0.0,8.0,79,0.00,,,0.00,49,Wunderground v.1.15,2013-08-22 21:37:00,
2013-08-22 17:42:00,76.0,69.4,30.00,WNW,290,0.0,8.0,80,0.00,,,0.00,49,Wunderground v.1.15,2013-08-22 21:42:00,
2013-08-22 17:47:00,75.8,69.2,30.00,WNW,292,0.0,8.0,80,0.00,,,0.00,62,Wunderground v.1.15,2013-08-22 21:47:00,
2013-08-22 17:57:00,75.8,69.6,30.00,West,264,0.0,0.0,81,0.00,,,0.00,114,Wunderground v.1.15,2013-08-22 21:57:00,
2013-08-22 18:07:00,75.9,69.3,30.00,WSW,246,1.0,1.0,80,0.00,,,0.00,127,Wunderground v.1.15,2013-08-22 22:07:00,
2013-08-22 18:12:00,75.9,69.3,30.00,West,260,1.0,6.0,80,0.00,,,0.00,118,Wunderground v.1.15,2013-08-22 22:12:00,
2013-08-22 18:17:00,75.9,69.3,30.00,West,261,2.0,8.0,80,0.00,,,0.00,105,Wunderground v.1.15,2013-08-22 22:17:00,
2013-08-22 18:22:00,75.8,69.6,30.00,NW,324,4.0,8.0,81,0.00,,,0.00,77,Wunderground v.1.15,2013-08-22 22:22:00,
2013-08-22 18:27:00,75.7,69.8,30.00,West,273,3.0,3.0,82,0.00,,,0.00,121,Wunderground v.1.15,2013-08-22 22:27:00,
2013-08-22 18:32:00,75.8,69.9,30.00,WSW,254,3.0,8.0,82,0.00,,,0.00,127,Wunderground v.1.15,2013-08-22 22:32:00,
2013-08-22 18:37:00,75.7,70.2,30.00,NW,317,5.0,5.0,83,0.00,,,0.00,116,Wunderground v.1.15,2013-08-22 22:37:00,
2013-08-22 18:47:00,75.7,70.2,29.99,WNW,288,3.0,3.0,83,0.00,,,0.00,93,Wunderground v.1.15,2013-08-22 22:47:00,
2013-08-22 18:57:00,75.3,70.5,30.00,NW,321,4.0,4.0,85,0.00,,,0.00,77,Wunderground v.1.15,2013-08-22 22:57:00,
2013-08-22 19:07:00,75.1,70.3,30.00,WNW,296,4.0,4.0,85,0.00,,,0.00,67,Wunderground v.1.15,2013-08-22 23:07:00,
2013-08-22 19:12:00,75.0,70.2,30.00,West,273,3.0,4.0,85,0.00,,,0.00,56,Wunderground v.1.15,2013-08-22 23:12:00,
2013-08-22 19:17:00,74.9,70.4,30.00,WNW,286,2.0,2.0,86,0.00,,,0.00,42,Wunderground v.1.15,2013-08-22 23:17:00,
2013-08-22 19:22:00,74.7,69.9,29.99,WNW,300,2.0,2.0,85,0.00,,,0.00,32,Wunderground v.1.15,2013-08-22 23:22:00,
2013-08-22 19:32:00,74.5,69.7,29.99,WNW,299,2.0,6.0,85,0.00,,,0.00,21,Wunderground v.1.15,2013-08-22 23:32:00,
2013-08-22 19:37:00,74.4,69.6,29.99,West,275,2.0,2.0,85,0.00,,,0.00,19,Wunderground v.1.15,2013-08-22 23:37:00,
2013-08-22 19:42:00,74.2,69.1,29.99,West,277,1.0,4.0,84,0.00,,,0.00,14,Wunderground v.1.15,2013-08-22 23:42:00,
2013-08-22 19:47:00,74.1,69.3,29.99,West,264,1.0,1.0,85,0.00,,,0.00,11,Wunderground v.1.15,2013-08-22 23:47:00,
2013-08-22 19:57:00,73.9,69.1,29.99,West,264,0.0,0.0,85,0.00,,,0.00,0,Wunderground v.1.15,2013-08-22 23:57:00,
2013-08-22 20:07:00,73.7,68.9,29.99,West,264,0.0,0.0,85,0.00,,,0.00,0,Wunderground v.1.15,2013-08-23 00:07:00,
2013-08-22 20:12:00,73.5,68.7,29.99,WNW,302,0.0,0.0,85,0.00,,,0.00,0,Wunderground v.1.15,2013-08-23 00:12:00,
2013-08-22 20:17:00,73.4,69.0,29.99,WNW,302,0.0,0.0,86,0.00,,,0.00,0,Wunderground v.1.15,2013-08-23 00:17:00,
2013-08-22 20:22:00,73.2,68.8,29.99,NW,313,0.0,0.0,86,0.00,,,0.00,0,Wunderground v.1.15,2013-08-23 00:22:00,
2013-08-22 20:32:00,73.0,68.6,29.99,NW,313,0.0,11.0,86,0.00,,,0.00,0,Wunderground v.1.15,2013-08-23 00:32:00,
2013-08-22 20:37:00,72.9,68.5,30.00,NW,313,0.0,11.0,86,0.00,,,0.00,0,Wunderground v.1.15,2013-08-23 00:37:00,
2013-08-22 20:42:00,72.7,68.3,30.00,WNW,286,0.0,11.0,86,0.00,,,0.00,0,Wunderground v.1.15,2013-08-23 00:42:00,
2013-08-22 20:47:00,72.5,68.1,30.00,NW,317,1.0,1.0,86,0.00,,,0.00,0,Wunderground v.1.15,2013-08-23 00:47:00,
2013-08-22 20:52:00,72.3,67.9,30.00,NW,323,1.0,11.0,86,0.00,,,0.00,0,Wunderground v.1.15,2013-08-23 00:52:00,
2013-08-22 20:57:00,72.1,67.3,30.00,NW,325,1.0,1.0,85,0.00,,,0.00,0,Wunderground v.1.15,2013-08-23 00:57:00,
2013-08-22 21:07:00,71.9,67.1,30.00,NW,305,0.0,0.0,85,0.00,,,0.00,0,Wunderground v.1.15,2013-08-23 01:07:00,
2013-08-22 21:17:00,71.7,66.9,30.00,NW,305,0.0,0.0,85,0.00,,,0.00,0,Wunderground v.1.15,2013-08-23 01:17:00,
2013-08-22 21:27:00,71.3,66.6,30.01,NW,305,0.0,0.0,85,0.00,,,0.00,0,Wunderground v.1.15,2013-08-23 01:27:00,
2013-08-22 21:37:00,71.1,66.4,30.01,NW,305,0.0,1.0,85,0.00,,,0.00,0,Wunderground v.1.15,2013-08-23 01:37:00,
2013-08-22 21:42:00,71.0,66.3,30.00,NW,305,0.0,1.0,85,0.00,,,0.00,0,Wunderground v.1.15,2013-08-23 01:42:00,
2013-08-22 21:47:00,70.8,66.4,30.00,NW,305,0.0,1.0,86,0.00,,,0.00,0,Wunderground v.1.15,2013-08-23 01:47:00,
2013-08-22 21:52:00,70.7,66.3,30.01,NW,305,0.0,1.0,86,0.00,,,0.00,0,Wunderground v.1.15,2013-08-23 01:52:00,
2013-08-22 21:57:00,70.6,66.2,30.01,NW,305,0.0,0.0,86,0.00,,,0.00,0,Wunderground v.1.15,2013-08-23 01:57:00,
2013-08-22 22:07:00,70.2,65.8,30.01,NW,305,0.0,0.0,86,0.00,,,0.00,0,Wunderground v.1.15,2013-08-23 02:07:00,
2013-08-22 22:12:00,70.0,65.6,30.01,NW,305,0.0,0.0,86,0.00,,,0.00,0,Wunderground v.1.15,2013-08-23 02:12:00,
2013-08-22 22:17:00,69.9,65.9,30.01,NW,305,0.0,0.0,87,0.00,,,0.00,0,Wunderground v.1.15,2013-08-23 02:17:00,
2013-08-22 22:22:00,69.7,65.7,30.01,NW,305,0.0,0.0,87,0.00,,,0.00,0,Wunderground v.1.15,2013-08-23 02:22:00,
2013-08-22 22:27:00,69.6,65.9,30.01,NW,305,0.0,0.0,88,0.00,,,0.00,0,Wunderground v.1.15,2013-08-23 02:27:00,
2013-08-22 22:32:00,69.5,65.8,30.01,NW,305,0.0,3.0,88,0.00,,,0.00,0,Wunderground v.1.15,2013-08-23 02:32:00,
2013-08-22 22:42:00,69.2,65.8,30.01,NW,305,0.0,3.0,89,0.00,,,0.00,0,Wunderground v.1.15,2013-08-23 02:42:00,
2013-08-22 22:47:00,69.0,65.6,30.01,NW,305,0.0,3.0,89,0.00,,,0.00,0,Wunderground v.1.15,2013-08-23 02:47:00,
2013-08-22 22:52:00,68.9,65.5,30.01,NW,305,0.0,3.0,89,0.00,,,0.00,0,Wunderground v.1.15,2013-08-23 02:52:00,
2013-08-22 22:57:00,68.8,65.7,30.01,NW,305,0.0,0.0,90,0.00,,,0.00,0,Wunderground v.1.15,2013-08-23 02:57:00,
2013-08-22 23:07:00,68.7,66.0,30.01,NW,305,0.0,0.0,91,0.00,,,0.00,0,Wunderground v.1.15,2013-08-23 03:07:00,
2013-08-22 23:12:00,68.7,66.0,30.01,NW,305,0.0,0.0,91,0.00,,,0.00,0,Wunderground v.1.15,2013-08-23 03:12:00,
2013-08-22 23:17:00,68.7,66.3,30.01,NW,305,0.0,0.0,92,0.00,,,0.00,0,Wunderground v.1.15,2013-08-23 03:17:00,
2013-08-22 23:22:00,68.7,66.3,30.01,NW,305,0.0,0.0,92,0.00,,,0.00,0,Wunderground v.1.15,2013-08-23 03:22:00,
2013-08-22 23:27:00,68.8,66.7,30.01,NW,305,0.0,0.0,93,0.00,,,0.00,0,Wunderground v.1.15,2013-08-23 03:27:00,
2013-08-22 23:32:00,68.8,66.7,30.01,NW,305,0.0,1.0,93,0.00,,,0.00,0,Wunderground v.1.15,2013-08-23 03:32:00,
2013-08-22 23:37:00,68.8,66.7,30.02,NW,305,0.0,1.0,93,0.00,,,0.00,0,Wunderground v.1.15,2013-08-23 03:37:00,
2013-08-22 23:47:00,69.1,67.3,30.02,NW,305,0.0,1.0,94,0.00,,,0.00,0,Wunderground v.1.15,2013-08-23 03:47:00,
2013-08-22 23:52:00,69.3,67.5,30.02,NW,305,0.0,1.0,94,0.00,,,0.00,0,Wunderground v.1.15,2013-08-23 03:52:00,
2013-08-22 23:57:00,69.4,67.6,30.02,NW,305,0.0,0.0,94,0.00,,,0.00,0,Wunderground v.1.15,2013-08-23 03:57:00,